Location: Gudip?du
(17.0263°N, 80.8301°E)
Time: 12:52:16
(UTC+00:00)

Daily predictions for brighter satellites

Satellite Brightness Start Highest point End
(mag) Time Altitude Azimuth Time Altitude Azimuth Time Altitude Azimuth
COSMOS 2455 4.4 12:17:10 10° SW 12:22:33 35° WNW 12:27:58 10° N
COSMO-SKYMED 1 2.6 12:20:00 10° NNE 12:24:18 70° ESE 12:28:36 10° S
CZ-4C R/B 3.8 12:26:11 10° NE 12:29:09 30° E 12:32:12 10° SSE
Okean O Rocket 3.0 12:26:38 10° ESE 12:29:40 18° ENE 12:32:43 10° NNE
Sakura Rocket 3.7 12:24:01 10° WNW 12:30:19 55° NNE 12:34:52 10° E
NOSS 3-1 (C) 4.4 12:22:16 10° NNW 12:30:42 65° ENE 12:39:46 10° SE
ARGOS 4.2 12:26:50 10° SE 12:31:03 24° ENE 12:35:16 10° NNE
Cosmos 990 Rocket 3.9 12:27:14 10° N 12:32:22 70° ENE 12:37:28 10° SSE
Meteor 2-6 Rocket 4.4 12:29:03 10° S 12:34:48 57° E 12:40:26 10° NNE
Cosmos 1633 Rocket 4.4 12:32:48 10° NE 12:35:55 19° E 12:39:02 10° SE
Cosmos 1151 Rocket 3.0 12:33:05 10° S 12:37:21 89° W 12:41:40 10° N
PAYLOAD B 4.3 12:33:24 10° SSE 12:38:53 59° ENE 12:44:22 10° N
Meteor 2-8 Rocket 4.5 12:34:29 10° S 12:40:30 61° E 12:46:33 10° NNE
SWIFT 2.6 12:38:36 10° WNW 12:42:44 53° N 12:46:09 15° ENE
CZ-4B R/B 3.5 12:41:36 10° SE 12:46:50 45° ENE 12:51:57 10° N
Atlas Centaur 2 1.8 12:43:35 10° WNW 12:47:04 51° SSW 12:50:37 10° SE
Cosmos 1809 Rocket 4.5 12:42:15 10° N 12:48:19 85° W 12:54:24 10° S
Cosmos 1328 Rocket 3.6 12:46:35 10° S 12:51:01 90° NE 12:55:27 10° N
Meteor 1-10 Rocket 4.4 12:46:17 10° S 12:52:03 58° E 12:57:43 10° NNE
Cosmos 1602 4.5 12:49:02 10° NNW 12:52:49 55° W 12:56:37 10° S
X-37B 2.6 12:52:13 10° W 12:54:23 20° NW 12:56:34 10° N
Meteor 2-21 Rocket 4.4 12:48:35 10° N 12:54:33 60° E 13:00:29 10° SSE
MOS 1-B 4.3 12:50:04 10° SSE 12:55:50 81° ENE 13:01:36 10° N
CZ-2D R/B 3.8 12:53:45 10° S 12:57:33 62° W 13:01:21 10° NNW
CZ-4 R/B 3.6 12:57:23 10° ESE 12:57:29 10° ESE 12:57:29 10° ESE
Cosmos 1666 Rocket 3.6 12:56:20 10° N 13:00:37 53° E 13:04:52 10° SSE
SL-08 RB Rocket 4.4 12:57:00 10° SE 13:01:06 31° ENE 13:05:11 10° NNE
DMSP B5D2-2 4.1 12:56:15 10° NNE 13:01:23 59° E 13:06:32 10° S
Tiangong 1.0 12:59:26 10° SW 13:02:33 72° SE 13:03:47 33° ENE
CZ-4C R/B 4.4 12:59:48 10° NNE 13:04:04 17° NE 13:04:04 17° NE
Cosmos 2360 4.1 13:01:08 10° N 13:06:49 69° ENE 13:12:28 10° SSE
CZ-2C R/B 4.1 13:03:02 10° N 13:07:43 36° WNW 13:12:25 10° SW
GPS 2-15 Rocket1 3.2 13:04:52 10° W 13:09:28 61° N 13:11:34 30° ENE
Aurora 2 Rocket 3.8 13:06:29 10° WNW 13:11:47 48° NNE 13:15:43 26° ENE
BREEZE-M DEB (TANK) 4.3 13:13:01 10° SSE 13:13:38 14° SSE 13:13:38 14° SSE
CZ-2C R/B 3.5 13:16:35 10° WNW 13:18:58 15° NNW 13:20:28 12° N
Cosmos 836 Rocket 4.4 13:15:13 10° S 13:20:30 83° ESE 13:24:36 17° NNE
Cosmos 1867 3.5 13:16:43 10° SSW 13:22:08 89° ESE 13:25:34 23° NNE
H-2A R/B 3.3 13:19:16 10° S 13:24:18 44° W 13:29:14 10° NNW
BREEZE M DEB (TANK) 4.1 13:15:51 10° NNW 13:24:26 29° NNE 13:24:59 28° NE
deb Chang Zheng 4 4.2 13:24:54 10° S 13:29:05 55° W 13:33:17 10° NNW
Cosmos 1515 Rocket 4.3 13:27:24 10° SSW 13:31:45 53° W 13:36:05 10° N
H-2A R/B 2.0 13:30:03 33° NNE 13:32:04 82° ESE 13:36:31 10° S
Meteosat 1 Rocket2 2.4 13:28:23 10° WSW 13:32:16 81° SSE 13:32:23 79° ESE
BREEZE-M DEB (TANK) 2.8 13:32:02 10° WSW 13:35:56 42° NW 13:36:13 41° NNW
USA 32 4.0 13:31:55 10° S 13:37:09 84° W 13:41:31 15° N
Aureole 3 Rocket 3.1 13:42:00 10° SSW 13:44:47 54° WSW 13:44:47 54° WSW
Cosmos 2266 Rocket 3.9 13:39:52 10° N 13:46:15 73° E 13:52:37 10° S
Cosmos 2084 4.5 13:43:45 10° NW 13:48:07 50° WSW 13:52:36 10° S
Genesis I 4.2 13:44:31 10° SSW 13:46:56 38° S 13:46:56 38° S
Cosmos 1697 Rocket 4.2 13:44:17 10° NW 13:49:22 36° WSW 13:54:27 10° S
Spot 2 4.3 13:45:48 10° SSE 13:50:45 85° ENE 13:53:20 30° N
Cosmos 2369 4.2 13:46:52 10° NNW 13:52:29 61° WSW 13:58:03 10° S
Cosmos 773 Rocket 4.5 13:48:08 10° S 13:52:05 46° SSE 13:52:05 46° SSE
Cosmos 1980 Rocket 2.1 13:47:44 10° NNW 13:53:22 82° WSW 13:58:57 10° SSE
USA 234 3.1 13:48:08 15° SE 13:53:49 82° NE 14:00:21 10° NW
USA 229 DEB 4.4 13:49:11 10° NNW 13:56:50 63° WSW 14:04:38 10° SSE
YAOGAN 1 3.1 13:52:37 10° S 13:56:01 52° SSW 13:56:01 52° SSW
USA 229 4.4 13:49:16 10° NNW 13:56:55 64° WSW 14:04:44 10° SSE
NOSS 3-3 (A) 4.4 13:54:24 10° SW 13:59:33 48° WNW 14:01:25 35° NNW
NOSS 3-3 (C) 4.4 13:54:29 10° SW 13:59:39 48° WNW 14:01:29 35° NNW
Okean O Rocket 4.0 14:02:21 10° SSW 14:05:45 22° W 14:09:11 10° NW
ATLAS 5 CENTAUR R/B 2.4 14:11:28 10° W 14:16:56 42° W 14:16:56 42° W
CZ-4 R/B 4.1 14:31:48 10° SSW 14:33:28 17° SW 14:33:28 17° SW
CZ-4C R/B 4.2 14:45:31 10° NNW 14:49:26 33° NNW 14:49:26 33° NNW
H-2A R/B 4.1 14:25:50 10° WNW 15:12:09 79° SW 15:12:18 79° SSW
Cosmos 2369 Rocket 4.1 22:03:35 10° SSE 22:11:08 22° ENE 22:13:24 10° NE
BREEZE-M DEB (TANK) 4.1 22:16:51 77° SE 22:16:51 77° SE 22:33:29 10° SE
NATO 3D Rocket 4.2 22:41:02 51° NE 22:41:02 51° NE 22:46:37 10° ENE
Cosmos 841 Rocket 4.4 22:43:25 37° NE 22:44:39 43° ENE 22:49:34 10° SSE
Hubble Space Telescope 3.3 22:46:53 15° NE 22:46:53 15° NE 22:48:06 10° ENE
SL-08 R/B 4.4 22:44:48 10° S 22:47:49 38° S 22:47:49 38° S
Cosmos 1072 Rocket 4.3 22:50:31 72° NNW 22:51:10 85° W 22:57:16 10° S
Tsikada Rocket 3.8 22:50:47 10° S 22:56:56 89° W 23:03:09 10° N
Cosmos 2082 Rocket 2.2 22:56:46 52° N 22:58:09 76° ENE 23:03:44 10° SSE
H-2A R/B 4.4 22:58:08 10° NE 23:01:31 32° E 23:04:56 10° SSE
Envisat 3.9 23:01:29 10° NNE 23:06:21 48° E 23:11:14 10° S
YAOGAN 6 3.6 23:05:55 15° NNE 23:08:40 46° E 23:12:07 10° S
OAO 2 Rocket 4.3 23:09:33 18° SSW 23:13:07 47° SE 23:18:03 10° ENE
Chandra Rocket (1) 3.0 23:13:57 26° NNE 23:13:57 26° NNE 23:15:43 10° ENE
Delta 2 Rocket 3.7 23:14:23 48° SSW 23:14:23 48° SSW 23:18:06 10° SE
COSMOS 2406 3.9 23:17:13 33° WSW 23:17:13 33° WSW 23:21:32 10° SSW
DELTA 4 R/B 3.6 23:17:22 13° SSE 23:17:39 13° SE 23:18:55 10° ESE
Meteor 2-3 Rocket 3.9 23:13:26 10° SSW 23:18:47 46° W 23:19:47 42° NW
Cosmos 1833 Rocket 4.3 23:23:41 18° SW 23:23:41 18° SW 23:25:54 10° SSW
COSMOS 2455 3.6 23:22:22 30° WSW 23:22:22 30° WSW 23:27:17 10° SSW
ATLAS 5 CENTAUR R/B 2.6 23:19:59 10° S 23:23:31 38° ESE 23:27:00 10° NE
Cosmos 1933 3.3 23:27:30 19° N 23:30:19 83° E 23:34:19 10° S
CZ-3 R/B 3.1 23:03:13 10° WSW 23:31:12 77° SSE 23:38:04 10° ENE
Cosmos 1570 Rocket 4.3 23:28:00 10° N 23:33:14 70° ENE 23:38:29 10° SSE
Cosmos 540 Rocket 4.1 23:34:32 32° W 23:35:06 32° W 23:39:39 10° SSW
Cosmos 1814 Rocket 3.8 23:35:41 13° NNW 23:40:13 81° WSW 23:45:22 10° S
FUSE 3.9 23:38:21 21° WSW 23:41:59 89° SSE 23:47:23 10° ENE
SJ 16-02 3.3 23:40:23 10° SSE 23:44:16 32° E 23:48:10 10° NE
Ariane H10+ 4.3 23:47:09 10° SW 23:49:00 17° S 23:51:23 10° SE
Meteor 1-26 Rocket 4.2 23:45:46 10° N 23:51:33 83° W 23:57:09 10° S
Cosmos 2369 Rocket 3.4 23:53:21 18° NW 23:53:21 18° NW 23:56:16 10° NNW
ARIANE 5 R/B 3.2 23:52:44 10° SW 23:55:12 18° S 23:57:18 10° SE
